Temp
27 26 25 25 26 27 27 28 28 29 29 29 28 27 27 26 27 30 31 31 32 31 32 34 33 33 34 32 30 29 29 29 29 29 28 28 27 27 27 26 26 26 27 27 26 26 26 25 25 24 24 24 23 23 22 22 22 22 22 22 22 22 22 22 22 22 22 22 22 22 22 22 22 21 21 22 23 23 23 24 24 24 24 24 24 24
26 25 26 27 27 28 27 28 28 28 29 29 28 27 26 26 27 30 31 31 32 30 31 33 32 33 34 33 31 30 29 29 29 29 28 28 27 27 27 27 27 27 27 27 26 26 26 25 25 24 24 24 23 23 22 22 22 22 22 22 22 22 22 21 22 22 22 22 22 22 22 22 22 22 22 22 23 23 23 24 24 24 24 24 24 24
25 25 27 28 27 27 27 27 28 28 29 29 28 27 25 27 28 29 31 31 32 30 30 32 32 32 34 33 31 30 29 29 29 29 29 28 27 27 27 27 27 27 26 26 26 26 26 26 25 25 25 24 24 23 23 23 22 22 22 22 22 22 22 22 22 22 22 22 22 22 22 22 22 22 22 22 23 23 24 24 24 24 24 24 24 24
23 26 28 28 27 28 27 27 28 28 28 28 28 26 24 28 27 26 29 31 32 31 31 32 31 32 33 31 30 30 30 30 30 30 30 29 28 27 27 27 27 27 26 26 26 27 27 26 26 25 25 25 24 24 23 23 23 22 22 22 22 22 22 22 22 22 22 22 22 22 22 22 23 22 22 23 23 24 24 24 24 24 24 24 24 24
26 27 28 28 27 28 27 27 28 27 27 28 29 27 26 28 27 26 29 31 31 31 32 31 28 28 32 31 31 31 30 30 29 29 29 29 28 28 28 28 27 27 27 26 26 27 27 27 26 26 25 25 25 24 24 23 23 23 22 22 22 22 22 22 23 22 22 22 22 22 22 22 22 22 22 22 23 23 23 24 24 24 24 24 24 24
28 27 27 27 27 28 28 27 28 27 26 26 28 29 28 29 29 29 30 29 27 26 31 30 23 24 30 31 31 31 29 29 29 29 29 28 29 28 28 28 28 28 27 27 27 27 27 27 26 26 25 25 25 24 24 24 23 23 22 22 22 22 22 22 22 22 22 22 22 22 22 22 22 22 22 22 23 23 23 23 23 24 24 24 24 24
28 27 27 27 27 28 28 27 28 28 26 24 27 30 30 30 29 29 29 27 23 23 29 31 24 23 26 29 32 31 29 29 29 29 29 29 29 28 28 28 28 28 28 27 27 27 27 27 27 26 26 25 25 25 24 24 23 23 23 22 22 22 22 22 22 22 22 22 22 22 22 22 22 23 23 23 23 23 23 24 24 24 24 24 24 24
28 27 27 27 27 27 27 27 28 29 26 25 28 30 29 30 29 29 28 26 25 26 28 30 27 23 23 28 32 31 29 29 29 29 29 29 29 29 29 29 28 28 28 28 27 27 27 27 27 27 26 26 25 25 25 24 24 23 23 23 23 22 22 22 22 22 23 22 22 22 22 22 23 23 23 23 23 23 24 24 24 24 24 24 24 24
28 27 27 27 27 27 27 28 28 29 28 27 29 30 30 30 30 30 29 26 27 26 23 26 28 23 22 27 32 31 29 29 29 29 29 29 29 29 29 29 29 29 28 28 28 27 27 27 27 27 26 26 26 26 25 24 24 23 23 23 23 22 22 22 22 22 23 23 23 23 22 22 23 23 23 23 23 23 23 24 24 24 24 24 24 24
28 28 29 28 27 27 28 29 29 29 29 29 30 30 30 30 30 30 29 26 25 24 21 24 26 23 22 25 29 28 28 30 31 31 30 30 30 29 29 29 29 29 29 29 28 28 28 28 27 27 27 26 26 26 25 25 24 24 23 23 23 23 22 22 23 23 23 23 23 23 22 23 23 23 23 23 23 23 23 23 24 24 24 24 24 24
28 28 29 29 29 29 29 29 29 29 30 29 30 30 29 29 29 29 28 26 23 22 22 24 26 24 22 24 28 29 29 32 33 32 31 30 30 30 30 30 30 29 29 29 29 28 28 28 28 27 27 27 26 26 25 25 25 24 24 23 23 23 23 22 23 23 23 22 22 23 23 23 23 23 23 23 23 23 23 23 23 24 24 24 24 24
28 27 28 29 29 30 29 28 28 29 30 30 30 29 26 25 26 25 24 24 22 21 23 25 27 25 22 24 30 32 33 33 34 33 32 31 30 30 30 30 30 30 29 29 29 29 28 28 28 28 27 27 26 26 26 25 25 25 24 24 23 23 23 23 22 22 22 22 22 22 23 23 23 23 23 23 23 23 23 23 23 23 23 24 24 24
28 28 28 28 29 30 29 28 27 28 29 30 29 26 23 22 22 22 22 22 22 22 24 26 26 24 23 26 31 33 34 34 34 34 34 32 31 31 30 30 30 30 30 29 29 29 29 28 28 28 28 27 27 26 26 26 26 25 24 24 23 23 23 23 23 22 22 22 22 22 23 23 23 23 23 23 23 23 23 23 23 23 23 23 23 24
24 27 28 28 28 30 29 27 25 25 28 28 27 24 22 21 21 21 21 22 22 22 24 26 26 23 23 28 33 34 33 34 34 34 34 34 33 32 31 31 30 30 30 30 29 29 29 28 28 28 28 27 27 26 26 26 26 25 25 24 24 23 23 23 23 23 22 22 22 22 23 23 23 23 23 23 23 23 23 23 23 23 24 23 24 24
22 23 26 28 28 29 30 29 28 27 27 28 29 27 24 22 22 22 22 21 22 22 23 24 24 22 23 28 32 34 34 35 34 34 34 34 33 33 32 32 31 31 30 30 30 29 29 29 29 29 28 27 27 27 27 26 26 25 25 24 24 24 23 23 23 23 23 23 23 23 23 23 23 23 23 23 23 23 23 23 24 24 24 24 24 25
22 23 27 29 29 29 29 30 31 29 26 28 31 28 24 25 24 22 22 22 22 22 22 22 23 25 27 29 32 33 34 35 34 34 34 33 33 33 32 32 31 31 31 30 30 30 29 29 29 29 28 28 28 27 27 27 26 25 25 25 24 24 24 23 23 23 23 23 23 23 23 23 23 23 23 23 23 23 24 24 24 24 24 24 24 25
22 23 28 29 28 30 30 30 31 29 26 27 27 25 26 30 28 23 21 23 22 22 22 22 23 26 28 30 33 33 32 33 34 33 34 33 33 33 32 32 32 31 31 31 30 30 30 29 29 29 29 29 28 28 27 27 26 26 25 25 25 24 24 24 23 23 23 23 23 23 23 23 23 23 23 23 23 23 23 23 24 24 24 24 24 24
24 24 27 29 28 29 31 31 30 31 30 27 25 26 29 30 29 25 22 22 22 22 22 22 22 24 24 26 31 34 33 33 33 33 34 33 33 33 33 32 32 32 32 31 31 30 30 30 30 30 29 29 29 28 27 27 26 26 26 25 25 24 24 24 24 23 23 23 23 23 23 23 23 23 23 23 23 23 23 23 23 24 24 24 24 24
26 23 26 30 29 28 30 30 28 30 31 29 28 30 29 25 24 24 22 22 22 22 22 22 22 23 23 25 29 32 32 33 33 33 33 34 33 33 33 33 32 32 32 31 31 31 30 30 30 30 30 30 29 28 28 27 27 26 26 26 25 25 25 24 24 24 23 23 23 23 23 23 23 23 23 23 23 23 23 23 23 24 24 24 24 24
27 24 23 28 30 29 29 28 25 26 29 29 29 31 29 26 24 24 23 23 22 22 22 22 22 23 25 29 31 32 33 34 33 33 32 33 34 34 34 34 33 32 32 31 31 31 31 30 31 31 30 30 30 29 28 28 28 27 27 26 26 25 25 25 24 24 23 23 23 23 23 23 23 23 23 23 23 23 23 23 23 24 24 24 24 24
27 25 23 26 29 27 26 27 27 27 27 27 26 26 27 27 26 25 24 24 23 22 22 22 22 23 27 32 34 34 34 34 34 33 32 33 34 34 34 34 34 33 32 31 32 31 31 31 31 31 31 30 30 29 29 29 28 28 27 27 26 26 25 25 25 24 24 24 24 23 23 23 23 23 23 23 23 23 23 23 23 24 24 24 24 24
24 25 23 23 25 24 26 29 31 31 30 29 27 26 26 26 25 24 23 24 24 23 22 22 22 23 29 32 33 35 35 35 35 34 33 33 33 34 34 34 34 33 32 32 32 32 32 31 31 32 31 31 30 30 30 30 29 28 28 27 27 26 26 26 25 24 24 24 24 24 23 23 23 23 23 23 23 23 23 23 23 24 24 24 24 24
21 23 23 23 24 26 28 30 31 31 32 31 30 30 30 28 25 22 22 23 23 23 23 23 21 25 31 33 33 35 35 35 36 34 34 34 34 33 34 34 34 33 32 32 32 32 32 31 31 32 31 30 30 30 30 30 29 29 28 28 27 27 27 26 26 25 24 24 24 24 24 24 23 23 23 23 23 23 23 23 23 23 24 24 24 24
21 22 22 22 25 27 29 30 30 30 30 30 30 31 31 29 28 27 25 24 23 22 23 23 21 25 31 32 32 33 34 34 35 33 33 34 34 33 33 33 33 32 32 32 32 32 32 31 31 31 30 30 30 30 30 29 29 29 29 28 28 28 27 27 26 25 25 24 24 24 24 24 24 23 23 24 23 24 24 24 23 23 24 24 24 23
21 21 22 22 22 23 25 27 27 27 28 28 29 31 31 30 31 30 27 25 24 23 23 23 21 25 30 30 30 31 31 32 33 32 32 32 32 33 32 32 32 31 31 31 31 31 32 31 31 30 30 29 29 30 30 29 29 29 29 28 28 28 27 27 27 26 25 25 25 24 24 24 24 24 24 24 24 24 24 24 24 24 24 24 23 23
20 21 21 21 21 21 22 22 22 23 25 26 27 29 30 30 30 28 25 23 22 23 24 23 22 26 31 31 30 31 31 32 33 33 32 30 31 31 31 31 31 31 30 30 30 30 31 31 30 30 29 29 29 30 30 29 29 29 29 29 29 28 28 27 27 26 25 25 25 25 24 24 24 24 24 24 24 24 24 24 24 24 24 24 24 24
20 20 20 20 21 21 20 20 21 22 22 23 25 26 28 30 30 28 25 22 23 23 23 24 25 26 29 32 33 33 32 32 34 34 32 31 31 32 31 29 29 29 29 29 30 30 30 30 30 30 29 29 30 30 29 29 29 29 29 29 29 29 28 27 27 26 25 25 26 25 24 24 24 24 24 24 24 24 24 24 24 24 24 24 24 24
20 20 20 20 20 20 20 21 21 22 21 22 23 24 25 28 29 28 24 24 25 23 22 25 27 25 27 33 34 34 34 33 33 34 33 32 33 32 30 29 29 29 29 29 29 29 30 30 30 30 29 29 30 30 29 29 29 29 29 28 29 29 28 27 27 26 26 26 26 25 25 24 24 24 24 24 24 24 24 24 24 24 24 24 24 24
19 20 20 20 20 20 21 22 22 21 21 22 22 23 24 25 26 26 26 27 27 24 23 27 27 26 29 33 34 34 34 34 34 34 32 32 32 32 31 31 31 31 30 29 29 29 29 29 30 29 29 29 29 29 29 29 29 29 29 28 28 28 28 28 27 27 26 26 25 25 25 25 24 24 24 24 24 24 24 24 24 24 24 24 24 24
19 19 20 19 20 20 21 22 22 22 21 22 22 23 24 24 25 25 26 29 29 27 28 29 28 28 31 33 34 35 34 33 33 32 31 32 33 32 32 32 32 32 31 30 30 29 29 29 29 29 29 29 29 29 29 29 29 29 29 29 28 28 28 28 27 27 26 26 25 25 25 25 24 24 24 24 24 24 24 24 24 24 24 23 24 24
18 19 19 19 19 20 21 22 22 22 22 22 22 23 24 24 25 25 26 28 28 27 29 30 27 28 32 33 34 35 33 31 31 32 33 34 33 33 33 33 34 34 32 31 30 29 29 29 29 29 29 28 29 29 29 29 29 29 29 29 28 28 28 28 27 27 26 26 26 25 25 25 25 24 24 24 24 24 24 24 24 23 23 23 23 23
18 18 19 19 19 20 21 21 21 22 22 22 22 24 25 24 25 26 27 28 27 27 27 27 25 27 31 32 32 32 31 31 32 33 34 34 32 32 33 35 36 34 31 30 29 29 28 28 29 29 29 29 29 29 29 29 29 29 29 29 29 28 28 28 27 27 26 26 26 26 26 25 25 24 24 24 24 24 24 24 23 23 23 23 23 23
17 17 18 18 18 19 21 21 21 21 21 22 23 24 25 26 27 27 28 29 29 29 27 26 27 30 31 31 32 32 32 32 32 32 33 33 32 31 32 34 34 31 28 28 28 28 28 29 29 29 29 29 29 29 29 29 29 29 29 29 29 28 28 28 28 27 27 26 26 26 26 25 25 25 24 24 24 24 24 24 23 23 23 23 23 23
17 17 18 18 18 18 20 21 21 21 21 22 23 24 24 26 26 27 28 29 30 30 29 29 31 32 32 31 32 32 33 34 33 32 32 32 31 32 32 31 29 27 26 26 27 27 28 28 29 29 29 29 29 29 30 29 29 29 29 29 28 28 28 28 28 27 27 26 26 26 26 25 25 25 24 24 24 24 24 24 24 24 24 24 23 23
16 17 17 18 18 18 20 20 20 20 21 23 24 24 23 24 24 25 27 29 30 30 31 31 31 32 32 31 32 33 34 33 31 29 28 27 27 28 29 28 25 25 25 25 25 25 26 26 28 29 29 29 29 30 29 29 29 29 29 28 28 28 28 28 28 27 27 26 26 26 26 25 25 25 24 24 24 24 24 24 24 24 24 24 24 23
16 16 17 18 18 18 19 19 20 20 22 24 24 23 22 23 23 23 26 28 29 30 31 31 31 32 32 31 31 32 31 30 27 26 25 25 24 24 25 25 24 24 23 23 23 23 23 24 26 28 29 29 29 29 30 29 29 29 28 28 28 28 27 27 27 27 27 26 26 26 26 25 25 25 25 24 24 24 24 24 24 24 24 24 24 24
16 16 17 17 18 18 19 19 20 21 21 23 23 22 21 22 22 22 23 25 27 27 28 29 31 32 32 31 30 29 28 28 28 27 25 24 23 23 23 23 23 22 22 22 22 22 22 23 24 26 28 29 29 29 30 29 29 28 28 28 28 27 27 27 27 27 27 26 26 26 26 25 25 25 25 25 24 24 24 24 24 24 24 24 24 24
16 16 16 17 18 19 19 19 20 20 20 22 22 21 21 21 21 20 21 22 24 23 24 25 28 30 31 31 29 27 27 28 30 30 27 24 23 23 22 22 22 22 21 21 21 22 23 23 23 24 26 28 29 29 29 29 29 28 28 27 28 28 27 27 27 27 27 27 26 26 26 25 25 25 25 25 25 25 24 24 24 24 24 24 24 24
16 16 16 17 18 19 19 18 19 20 21 22 21 21 21 22 21 21 21 22 22 21 21 22 23 25 28 29 28 27 28 29 31 32 28 24 23 23 22 22 22 21 21 21 21 22 22 23 23 25 26 28 28 28 29 29 28 28 28 28 28 28 28 27 27 27 27 27 26 26 26 26 25 25 25 25 25 25 25 24 24 24 24 24 24 24
15 15 15 15 16 18 18 19 20 20 22 23 21 21 22 22 21 21 22 22 21 20 20 21 21 22 24 26 26 27 29 31 33 31 26 23 23 22 21 21 21 20 21 21 21 21 22 22 23 24 26 26 26 27 28 28 28 28 28 28 28 28 28 27 27 27 27 27 27 26 26 26 25 25 25 25 25 25 25 25 25 24 24 24 24 24
14 14 14 15 16 17 18 18 20 21 22 23 22 21 22 22 21 21 22 21 19 19 20 20 21 21 22 23 25 28 28 28 28 26 23 22 22 21 21 21 20 20 21 21 21 21 22 22 22 22 23 22 23 25 27 27 28 27 27 27 28 28 28 27 27 27 27 27 27 26 26 26 25 25 25 25 25 25 25 25 25 25 24 24 25 25
14 14 15 14 15 17 18 18 19 20 22 23 22 21 22 22 22 21 20 19 19 20 20 19 19 21 22 23 24 26 25 23 23 23 22 22 21 21 21 21 20 20 21 20 20 21 21 22 21 21 21 21 22 24 26 27 27 27 27 27 27 27 27 27 27 27 27 27 26 26 26 26 25 25 25 25 25 25 25 25 25 25 25 25 25 25
14 14 15 15 16 16 17 17 18 19 21 22 21 21 21 22 22 20 19 20 20 20 19 19 19 20 22 23 23 24 23 23 23 23 22 21 21 20 21 21 20 20 20 20 20 21 21 21 21 21 21 21 22 23 25 26 26 26 26 26 25 26 26 26 26 27 26 26 26 26 26 26 25 25 25 25 25 25 25 25 25 25 25 24 24 25
14 14 14 16 17 16 16 17 18 19 20 21 22 22 22 22 20 19 18 20 20 19 18 18 18 20 21 22 23 23 22 22 22 21 21 21 20 20 20 20 20 19 20 20 20 20 21 21 21 20 20 20 21 22 24 25 25 25 25 24 24 25 25 26 26 26 26 26 26 26 26 26 26 26 25 25 25 25 25 25 25 25 25 24 25 25
14 14 13 14 15 16 16 17 18 18 19 20 21 22 21 20 19 18 18 19 19 19 18 17 18 19 20 21 22 22 21 21 21 21 21 20 20 20 20 20 19 19 20 20 20 20 20 21 21 21 20 20 20 20 21 22 23 23 22 21 22 23 24 25 26 26 26 26 26 26 26 26 26 26 25 25 25 25 25 25 25 25 25 25 25 25
14 14 13 12 13 15 16 17 17 17 18 20 20 20 20 19 19 18 18 18 18 18 17 17 17 18 19 21 21 21 21 20 20 20 21 20 20 20 19 19 20 20 20 20 20 20 21 20 21 21 20 20 20 20 20 21 21 21 20 20 21 22 23 24 25 25 25 25 26 25 26 26 26 26 25 25 25 25 25 25 25 25 25 25 25 25
14 13 12 12 13 13 14 17 18 18 18 19 19 19 19 19 18 18 18 18 17 17 17 17 17 18 19 20 21 20 20 20 20 20 20 20 20 20 19 19 20 20 20 20 20 21 21 21 21 21 20 20 21 20 20 20 20 20 20 20 20 21 22 23 24 24 25 25 25 25 25 25 25 26 25 25 25 25 25 25 25 25 25 25 25 25
14 13 12 12 12 12 13 15 16 16 17 19 19 18 18 18 18 18 17 17 17 17 17 17 17 18 18 19 19 20 20 20 20 19 19 19 19 19 19 19 20 20 21 21 21 21 21 21 21 20 20 20 20 20 20 20 20 20 19 20 20 20 21 22 23 23 24 24 24 24 24 24 25 25 25 25 26 26 26 26 26 26 26 26 26 26
13 12 12 12 12 12 13 14 14 15 16 18 18 18 18 18 17 17 17 16 16 17 17 17 17 17 17 18 18 19 19 19 19 19 19 19 19 19 19 20 20 21 21 21 21 21 21 20 20 20 20 20 20 20 20 20 20 19 19 19 20 21 21 21 21 22 22 22 22 22 22 23 23 23 24 24 24 24 24 24 24 24 25 25 25 25
12 11 12 11 11 11 12 14 15 15 16 18 18 18 18 18 17 17 16 16 16 16 16 17 17 17 17 17 18 18 19 19 19 19 19 19 19 19 20 20 20 20 21 21 20 20 20 20 20 20 20 20 20 20 20 20 20 20 19 19 19 20 21 21 21 21 21 21 21 21 22 22 22 22 23 23 23 23 23 23 23 23 23 23 24 24
11 12 12 12 11 12 14 15 16 15 15 17 18 18 17 18 17 16 16 16 16 16 16 16 16 17 17 17 17 17 18 18 18 18 18 18 18 19 20 20 20 20 20 20 20 20 20 20 20 20 20 20 20 20 20 20 20 20 20 19 19 20 20 20 20 20 20 20 20 20 21 22 22 22 22 22 22 22 22 23 24 24 24 24 24 24
Height
750 760 761 757 755 754 756 756 756 757 757 760 765 768 768 768 765 757 756 751 747 757 755 749 751 748 744 744 745 745 746 750 752 753 755 755 756 758 759 760 759 760 760 762 766 770 773 776 779 782 784 786 788 790 793 795 797 799 802 805 807 810 813 815 817 819 821 823 825 826 828 830 831 832 833 834 836 837 839 840 841 842 844 845 846 848
751 756 751 747 749 749 753 755 756 758 759 761 764 767 766 766 763 756 755 751 747 757 756 748 751 748 742 742 742 744 748 750 749 751 753 752 753 754 755 756 757 758 759 761 764 767 770 773 776 779 782 784 786 787 790 792 794 797 800 802 804 807 810 811 813 815 817 819 821 823 825 827 829 830 831 833 834 836 837 838 840 841 842 843 845 846
756 750 741 741 744 748 752 754 756 760 760 762 762 766 767 761 759 756 753 750 748 756 756 750 752 747 739 738 739 740 743 743 740 741 743 745 749 751 751 753 754 757 758 759 761 763 766 769 772 776 779 781 784 785 787 789 791 794 796 799 801 803 805 808 810 811 814 816 819 821 823 825 827 828 830 832 833 834 835 836 838 839 840 842 843 845
754 743 734 737 743 748 753 754 757 760 760 761 760 764 763 756 762 763 756 752 749 751 753 751 752 746 739 740 739 737 736 736 737 737 738 741 744 745 745 748 751 754 756 757 758 759 762 766 769 772 775 778 781 783 784 785 788 790 793 795 797 800 802 804 806 808 812 815 817 820 822 824 826 827 829 830 831 832 834 835 836 837 838 840 841 843
742 733 728 735 742 746 753 755 757 760 760 758 755 757 757 754 760 762 757 754 750 749 748 751 757 748 739 742 740 735 735 736 737 738 740 740 740 743 744 746 748 750 751 753 755 756 758 761 764 768 772 774 776 778 779 781 784 786 788 791 793 796 798 800 802 806 809 813 816 818 821 823 824 826 827 827 829 830 831 833 834 835 837 838 840 841
733 729 728 736 742 743 750 753 752 755 757 756 751 749 751 753 757 760 759 758 762 763 750 752 771 760 740 741 740 736 738 739 737 738 740 740 739 741 744 745 745 746 748 749 751 753 754 757 762 765 767 769 771 773 775 777 780 782 784 787 790 792 794 797 800 803 807 810 813 815 817 820 821 822 823 823 825 827 828 830 832 833 835 837 838 839
728 727 729 736 740 741 747 748 745 747 755 757 746 743 748 752 756 759 760 764 772 771 752 751 772 769 748 741 738 736 740 739 737 738 738 738 738 739 740 740 742 743 744 746 748 750 752 755 758 760 762 765 766 769 773 776 778 779 781 783 786 789 791 794 797 800 803 806 809 811 813 815 816 817 818 820 822 824 826 828 830 831 833 835 836 837
722 729 733 735 738 741 743 743 739 741 752 753 740 740 749 751 756 758 760 766 765 762 756 750 760 771 759 741 731 733 741 742 739 739 736 734 735 735 735 735 736 738 739 742 745 746 748 750 752 754 757 759 763 767 771 773 774 776 778 780 783 786 788 791 794 797 800 803 805 808 810 812 813 814 816 818 820 822 824 826 828 829 831 832 834 835
715 726 730 731 738 740 735 733 733 738 746 746 737 738 744 748 752 753 757 763 759 764 769 754 753 773 763 736 729 733 740 743 738 735 733 730 731 731 731 732 732 733 734 736 739 741 742 744 746 749 751 755 760 764 766 768 771 774 776 779 781 783 786 788 791 794 796 799 801 804 807 808 810 812 814 816 818 820 822 824 826 827 829 830 831 833
713 715 716 724 734 732 728 726 728 734 740 738 735 738 742 745 747 751 757 759 762 774 775 756 753 771 761 733 731 739 738 736 730 726 726 724 726 727 727 728 728 729 731 732 733 735 736 739 741 745 748 752 756 760 763 766 769 772 775 778 780 781 783 786 788 791 793 796 799 801 803 805 807 809 812 814 816 818 819 821 823 824 826 827 829 830
711 709 710 718 722 720 722 725 725 729 732 733 737 741 746 749 749 755 755 758 773 777 764 752 749 764 763 732 722 731 727 721 719 719 721 720 721 722 721 722 723 725 727 728 729 731 732 735 739 743 746 749 753 756 760 763 766 769 772 775 777 779 782 784 786 788 791 794 796 797 799 801 804 807 809 812 813 815 816 818 819 821 823 824 826 827
713 715 715 712 711 712 719 727 727 726 727 733 739 745 755 760 759 764 764 768 783 775 753 744 743 759 764 733 712 713 709 707 711 712 714 716 716 716 715 716 717 718 721 723 726 728 729 733 736 740 742 745 749 752 755 759 762 766 768 771 774 777 779 781 783 786 788 791 793 794 796 798 801 804 806 808 810 811 813 814 816 818 820 822 823 824
716 715 714 711 707 708 719 729 732 731 730 734 739 747 764 775 777 780 779 777 777 765 748 740 744 754 746 722 709 707 703 702 702 700 703 706 708 709 709 709 709 712 714 717 720 723 725 728 730 733 737 740 743 746 749 754 758 761 764 767 770 773 775 778 781 783 785 787 789 791 793 795 798 801 802 804 806 808 809 811 813 815 817 818 820 821
724 718 712 714 710 704 712 724 734 736 733 734 737 745 762 775 786 789 782 777 771 760 747 741 748 751 733 712 703 701 699 697 694 693 694 695 698 700 700 701 703 705 708 709 712 716 718 720 722 726 730 733 737 740 744 748 752 756 759 762 766 769 772 775 777 779 782 783 785 787 790 792 795 797 799 801 803 805 807 808 810 811 813 814 816 817
729 727 710 708 707 701 705 710 716 725 730 729 726 734 747 753 766 773 770 772 767 757 753 752 752 744 729 711 695 689 689 686 686 687 686 688 689 690 692 695 699 702 702 704 706 709 710 712 715 719 723 727 731 735 738 742 746 750 753 756 760 764 768 771 774 776 778 780 782 785 787 789 792 793 796 798 800 802 803 805 807 808 809 811 812 813
719 716 695 693 695 695 703 702 701 716 731 727 720 732 741 733 738 752 755 754 754 756 758 756 743 722 711 704 691 689 688 683 684 684 684 687 685 686 691 693 696 697 697 699 701 702 704 706 710 714 717 721 725 730 733 736 739 743 746 750 755 759 763 766 769 772 774 776 779 781 783 786 788 790 793 794 796 798 799 801 803 805 806 808 809 810
716 710 691 692 695 691 695 697 697 709 724 726 727 732 727 716 724 746 754 750 753 760 754 745 736 716 708 703 688 688 692 687 687 685 684 686 683 686 690 689 690 691 690 692 693 695 698 701 705 708 712 715 719 723 726 729 732 736 740 745 749 754 758 761 764 767 770 773 775 777 780 782 785 786 788 790 792 794 796 798 800 802 803 805 806 808
705 707 692 692 700 693 686 692 696 696 704 721 730 721 713 719 725 737 754 757 759 763 750 739 736 725 721 714 692 687 694 690 687 686 683 683 683 686 685 684 684 683 684 686 686 689 692 696 699 702 706 709 712 715 718 721 726 730 735 739 744 748 751 754 758 762 765 768 771 773 776 778 780 782 785 786 788 791 793 795 796 799 800 801 803 805
694 705 697 687 693 693 686 695 705 699 695 706 711 703 711 734 739 739 752 757 759 763 751 739 734 723 717 709 695 693 694 689 685 684 683 681 681 682 679 679 679 679 681 682 683 686 688 690 692 695 699 702 706 709 712 716 722 727 731 735 739 742 744 749 753 757 761 763 767 769 771 774 776 778 781 783 785 788 789 791 792 795 796 798 800 802
690 703 705 688 684 691 693 699 709 708 702 701 703 702 707 720 727 732 738 739 747 757 751 743 736 717 699 691 691 693 689 685 685 683 682 679 675 674 673 672 673 675 677 677 678 680 681 682 684 688 693 695 699 703 707 713 718 722 727 730 734 737 741 746 750 752 756 758 762 764 767 770 772 775 777 779 782 784 785 787 789 791 793 794 796 798
690 698 706 696 688 694 698 697 697 701 704 706 710 711 711 713 715 722 726 724 731 745 749 748 737 708 684 679 681 683 680 679 679 679 679 675 670 667 666 665 666 668 670 671 672 673 674 677 679 683 687 690 695 699 703 709 713 717 722 725 728 732 737 741 744 747 750 753 757 760 762 765 768 771 773 776 778 779 781 784 785 787 789 791 793 794
699 699 702 699 696 697 694 686 682 684 689 695 701 704 706 710 715 728 736 723 719 728 734 740 734 702 677 674 672 672 673 670 669 672 673 670 667 664 662 660 661 662 664 665 666 668 670 673 675 678 682 687 692 695 699 704 708 712 716 719 723 728 731 735 738 742 745 748 752 754 757 760 764 766 769 772 774 776 778 780 781 783 786 787 789 791
706 706 704 699 695 691 686 680 676 676 677 681 687 689 692 699 707 723 733 723 719 723 719 727 731 701 672 669 668 665 666 663 662 665 667 665 663 661 660 658 658 660 661 662 663 665 667 668 671 675 679 684 687 690 695 699 702 705 708 713 718 721 724 728 732 735 739 743 746 749 753 756 759 762 764 767 769 771 773 776 777 779 781 783 785 786
708 710 708 704 697 688 682 678 676 677 681 684 683 681 685 691 693 700 708 710 716 721 719 730 734 703 672 667 666 663 663 662 661 662 664 664 660 659 659 658 658 660 661 662 662 663 664 666 670 674 677 680 683 687 691 694 697 700 703 708 712 714 718 722 726 730 734 738 741 745 749 751 754 757 759 762 764 766 769 771 773 775 776 779 781 782
711 713 710 710 713 710 701 694 688 684 686 689 685 680 681 684 686 690 698 708 713 709 711 724 723 695 674 671 670 668 668 666 663 661 662 663 660 659 659 658 658 660 661 662 662 662 664 666 668 670 671 674 677 681 685 688 691 695 699 702 706 709 714 718 722 725 728 733 737 741 744 746 749 752 754 757 759 761 764 767 769 770 772 774 776 778
714 717 714 712 716 718 716 712 705 698 696 693 688 683 680 681 685 689 699 714 716 705 701 707 704 686 674 673 673 672 672 669 663 659 660 662 661 659 659 659 658 659 660 661 661 661 662 663 664 665 666 669 672 675 679 683 686 690 694 697 701 705 709 713 717 720 723 728 733 736 738 741 744 746 748 751 754 757 760 762 764 766 767 769 771 773
715 718 718 718 716 715 719 719 713 709 709 703 696 691 686 682 682 685 695 704 706 706 702 692 688 687 679 674 673 671 670 670 664 659 660 661 659 657 657 658 658 658 659 659 659 660 660 660 661 661 662 664 666 669 673 677 680 684 688 692 697 701 705 708 712 715 718 723 727 730 732 734 737 740 742 745 748 752 755 757 759 761 762 764 766 768
719 720 720 721 721 719 720 717 711 712 714 709 704 700 693 687 683 683 690 691 691 704 705 686 684 692 684 674 672 668 667 668 664 660 659 658 656 655 656 658 658 657 656 657 658 658 658 658 657 657 658 659 662 665 669 672 675 678 682 686 691 695 699 702 706 710 714 718 722 724 725 728 731 734 737 740 743 747 749 752 754 756 758 759 761 763
724 724 721 721 722 718 715 710 708 712 713 709 707 703 697 694 691 687 686 682 682 693 693 681 685 690 680 672 670 665 664 663 659 657 657 655 654 654 655 657 656 655 655 655 656 655 655 655 654 654 655 656 659 662 665 668 671 674 678 681 685 690 692 696 701 706 710 713 715 716 718 722 726 730 733 736 738 741 744 747 749 751 753 754 756 759
725 724 722 722 722 717 713 709 707 709 711 708 705 702 697 695 693 691 688 680 677 680 677 675 683 681 669 665 662 657 657 658 657 657 656 655 654 654 655 656 654 653 652 652 651 651 651 651 650 651 652 654 657 658 661 664 666 669 673 676 680 684 687 692 697 701 704 706 707 710 714 718 722 725 728 731 733 736 739 742 744 746 748 750 752 755
727 726 723 723 723 718 711 707 706 707 709 708 702 697 694 693 691 690 688 681 678 679 673 672 681 677 662 656 655 653 655 658 659 658 655 653 653 654 655 653 651 650 649 649 649 649 648 648 648 649 650 651 651 653 656 658 660 664 667 671 675 678 682 687 691 694 697 699 701 706 710 714 718 721 723 726 728 731 734 737 739 741 743 745 748 750
731 729 725 725 728 721 711 710 710 705 702 700 694 689 687 687 685 682 679 676 676 679 678 677 680 674 662 657 657 656 658 660 659 656 653 652 652 653 653 650 647 647 648 649 649 648 647 646 646 646 646 645 646 649 651 653 656 660 662 665 668 672 677 682 685 688 691 692 697 702 706 710 713 715 718 720 723 726 729 732 734 736 738 740 742 745
734 733 729 729 732 724 713 711 710 708 707 699 686 681 678 675 674 673 671 669 667 670 674 675 671 664 658 658 660 658 657 658 656 653 651 650 650 651 650 646 645 647 648 648 647 646 645 643 642 641 640 640 642 644 645 649 653 656 657 660 664 668 673 676 679 682 685 688 694 698 701 705 708 711 713 715 718 722 725 727 729 730 733 735 738 741
735 734 731 729 733 729 717 711 712 715 713 695 678 676 676 672 671 670 666 663 661 660 661 661 658 654 654 656 658 656 652 648 647 646 645 645 647 647 646 645 646 648 648 646 645 643 641 639 638 636 635 636 637 639 643 647 650 653 656 661 665 667 670 671 674 677 680 685 690 693 697 701 703 705 708 710 714 718 720 722 724 725 728 731 733 736
736 735 732 729 731 728 717 717 723 719 702 682 671 673 673 671 672 670 661 656 655 654 654 656 654 651 651 652 651 648 644 641 642 644 644 645 646 646 646 646 647 647 646 645 644 642 639 637 636 634 633 633 635 638 642 644 646 650 655 659 663 666 668 670 672 674 678 682 686 689 693 695 698 700 703 707 711 713 716 718 720 722 724 726 728 730
735 734 731 728 728 726 723 724 720 705 686 673 669 671 672 672 674 672 664 655 651 651 652 653 651 648 647 648 645 643 643 643 645 647 645 645 646 646 646 645 644 644 644 642 641 640 638 636 634 632 631 631 634 636 637 640 643 647 651 655 659 663 666 669 671 674 677 680 682 686 688 690 693 696 699 703 706 709 711 713 714 717 720 722 724 725
732 733 731 728 724 722 724 718 705 696 690 680 675 677 678 678 678 680 679 667 655 653 653 650 648 645 643 644 644 644 646 649 650 648 643 643 644 644 644 643 642 642 641 639 638 636 634 633 631 630 629 629 631 632 634 637 641 645 649 652 656 659 663 666 669 671 674 676 678 681 683 686 689 692 695 699 702 703 705 707 709 712 715 718 719 721
727 728 728 728 721 716 720 717 708 708 702 686 679 680 678 676 677 682 687 678 663 660 660 656 652 646 641 642 645 646 649 655 655 646 639 640 642 641 642 641 640 640 639 637 636 633 631 630 628 627 628 628 629 630 632 635 639 642 647 649 652 656 659 662 664 666 668 671 673 676 679 683 686 690 693 695 696 698 700 702 705 707 709 711 713 715
725 725 725 726 719 712 716 717 711 706 694 679 677 678 674 673 674 679 685 679 667 665 665 661 658 653 645 644 646 647 652 658 653 640 633 637 639 639 641 641 640 640 638 636 635 632 630 628 627 626 626 626 628 629 631 633 637 640 643 646 649 653 655 657 659 661 663 666 669 672 676 679 682 685 688 690 691 693 695 697 699 701 703 705 707 708
727 728 727 728 721 711 711 709 700 693 682 673 674 676 671 669 673 682 685 675 667 668 666 661 661 658 651 649 648 646 647 648 642 632 630 636 638 639 641 641 640 640 638 636 635 633 630 629 628 626 626 626 627 628 630 633 635 638 641 644 647 649 650 652 655 658 662 665 667 670 673 674 677 679 681 682 684 687 690 692 694 696 698 699 701 703
726 727 727 726 719 712 711 706 696 685 673 667 671 672 668 670 678 685 681 670 666 667 663 661 662 657 653 652 650 644 640 637 634 631 632 636 639 640 641 640 640 639 638 636 635 633 632 631 630 629 628 627 627 628 630 632 634 637 640 643 645 647 648 651 654 657 661 664 666 669 671 672 673 675 676 678 681 684 687 688 691 693 694 696 698 700
725 723 722 722 718 712 706 702 697 685 668 662 668 669 668 675 681 677 669 665 664 663 660 661 661 656 652 650 647 643 641 638 637 635 635 637 639 641 641 640 640 640 638 636 635 633 633 633 632 631 630 629 629 629 630 632 635 637 640 643 645 647 648 651 654 656 659 661 664 666 668 669 671 673 675 678 680 682 684 686 689 691 692 694 697 698
724 722 718 713 712 712 709 705 704 692 669 660 667 671 670 672 671 667 664 662 660 659 660 662 659 655 651 647 644 642 642 641 640 639 639 639 640 641 642 641 641 640 638 637 635 635 635 634 633 633 633 632 631 630 631 633 635 638 641 643 645 647 649 651 653 655 658 660 662 664 665 667 669 671 673 676 678 680 682 684 687 689 691 692 694 696
721 721 717 706 701 706 707 700 693 683 667 659 663 665 664 662 662 665 667 662 657 658 660 661 658 653 649 646 643 642 642 643 644 643 643 642 641 642 643 642 641 641 639 638 637 637 637 637 636 636 636 635 634 633 633 635 636 639 642 644 646 648 649 651 653 655 657 659 660 662 664 666 668 670 672 674 676 678 680 682 684 687 689 690 691 692
714 715 719 714 706 702 698 689 683 678 670 663 658 657 658 659 660 664 664 661 659 658 658 660 659 654 649 646 644 644 644 645 645 645 645 644 643 643 644 643 642 641 640 640 639 639 639 639 638 638 639 638 638 637 637 638 639 640 643 645 647 648 649 650 652 653 655 657 658 660 662 664 666 668 670 672 674 676 677 680 682 683 685 687 687 688
710 712 717 718 711 702 693 685 682 681 676 668 661 656 657 659 659 661 662 661 660 659 658 660 659 654 650 647 646 646 647 645 644 646 646 646 646 645 645 644 642 641 641 641 640 640 640 640 641 640 641 641 641 641 641 641 642 643 645 646 647 648 649 650 651 652 654 655 656 658 660 662 664 666 668 670 672 673 675 677 679 680 681 682 682 683
711 714 717 716 713 709 699 684 678 679 676 672 667 660 657 659 659 659 661 660 659 659 660 659 657 654 651 649 647 648 648 645 645 647 648 649 649 647 646 645 643 642 642 641 641 640 640 640 642 643 643 644 644 644 644 644 644 644 646 647 647 648 650 650 651 652 653 654 656 657 659 661 662 664 666 668 669 671 672 674 676 677 677 677 678 679
712 714 717 714 711 710 702 688 682 683 679 673 669 663 659 660 660 658 658 658 658 660 660 658 656 654 653 651 650 650 650 647 646 648 650 651 651 649 648 646 644 643 643 642 641 641 641 641 643 644 644 645 646 646 646 645 646 646 646 647 648 648 650 651 652 653 654 655 656 657 658 660 661 663 664 666 667 669 670 671 673 673 673 673 675 675
714 715 714 712 711 708 700 689 688 689 683 675 670 664 660 659 657 655 655 656 659 662 661 657 655 655 656 655 651 651 653 651 647 647 650 652 652 651 649 647 645 644 644 643 643 642 642 642 643 643 644 646 647 647 647 647 648 648 648 648 649 649 650 651 653 654 655 656 657 658 659 660 661 662 664 665 666 668 669 670 670 670 670 670 671 672
715 713 709 712 715 709 695 685 684 687 682 673 667 664 662 656 650 649 652 658 663 664 661 658 657 656 657 656 652 651 655 654 649 648 649 651 652 652 651 649 647 646 645 644 644 643 642 642 643 643 645 646 648 648 648 649 650 650 650 650 650 650 651 652 653 655 656 657 658 659 660 661 662 663 664 665 666 667 667 668 668 668 668 668 668 669
708 705 702 707 706 694 683 680 681 683 682 673 665 664 660 650 643 646 653 660 665 665 661 659 660 661 661 658 654 653 655 655 652 649 649 652 654 653 652 651 649 648 647 646 645 645 644 644 644 645 646 648 649 650 650 650 651 652 652 652 652 653 653 654 654 656 657 657 658 659 660 661 662 662 663 664 665 665 665 666 666 665 665 665 664 664
Wind_Speed
8 6 9 11 10 11 11 13 11 2 1 6 7 8 9 8 9 6 3 2 2 4 7 8 9 12 11 7 11 13 14 14 13 12 13 14 14 14 16 16 16 17 15 16 21 24 24 25 24 23 21 22 23 23 24 25 26 27 28 27 26 25 24 24 23 23 24 22 21 20 19 18 17 17 19 22 24 22 21 22 21 19 18 18 18 17
8 11 13 12 8 9 11 12 11 9 6 6 6 6 7 9 8 5 5 5 4 5 6 6 10 12 10 7 9 13 14 16 16 15 16 17 16 14 16 18 17 14 12 14 18 22 24 24 24 23 22 24 24 24 26 27 27 28 28 29 28 27 26 26 26 26 25 23 22 20 19 18 16 17 18 18 21 22 22 23 22 20 19 19 19 18
9 13 13 11 8 8 10 12 13 14 13 9 8 7 7 7 6 6 5 5 5 5 6 7 10 11 8 6 10 15 16 16 17 19 18 18 17 16 17 18 16 14 14 16 17 20 24 25 25 25 25 26 26 25 26 28 28 28 29 29 29 29 29 28 29 29 27 25 23 21 19 18 16 16 19 18 19 22 23 23 22 21 21 20 20 19
9 9 11 13 11 12 11 12 14 13 12 11 9 9 10 7 5 6 3 1 2 4 6 7 9 9 5 5 9 14 15 13 16 18 15 15 16 17 17 16 15 17 17 17 18 19 22 24 26 26 27 27 27 26 27 28 29 29 30 30 30 32 32 32 32 32 31 27 24 23 23 22 19 16 19 21 21 23 23 23 23 23 22 21 21 20
9 2 10 16 15 16 13 11 14 11 9 12 13 12 11 8 6 5 1 4 5 5 6 6 9 8 5 7 8 10 12 12 13 16 14 14 15 14 14 14 15 17 17 17 19 19 20 23 25 27 28 28 29 29 28 29 29 29 30 32 33 35 36 37 37 35 33 30 25 23 22 20 19 17 17 19 20 22 24 23 23 24 24 22 22 21
10 3 10 17 16 18 15 11 14 13 9 10 14 15 10 6 6 3 2 5 7 6 3 2 7 6 3 6 6 6 11 13 13 15 17 15 15 14 14 15 16 16 16 16 18 18 19 22 24 26 28 28 29 30 29 29 30 30 31 34 36 36 37 37 38 37 36 33 29 25 21 19 18 18 18 19 18 20 23 23 22 24 25 23 23 22
7 7 11 15 16 19 17 13 15 14 10 8 9 12 9 6 7 7 5 5 5 6 1 1 7 6 2 6 5 6 10 13 13 15 17 15 14 15 15 15 16 16 16 16 17 17 18 21 23 25 29 30 30 29 28 28 29 31 31 34 38 37 36 36 36 37 37 34 31 29 27 23 21 20 19 20 20 20 24 26 25 25 25 24 24 23
9 12 11 14 15 16 16 13 14 15 12 6 6 11 11 10 11 10 8 8 7 6 5 6 7 7 8 7 5 7 9 11 13 15 16 16 16 17 17 17 17 17 17 16 17 18 19 21 24 27 30 31 30 28 27 28 29 32 33 36 39 37 35 35 36 38 39 36 34 33 30 25 24 23 20 21 23 23 26 28 28 27 27 26 25 25
12 16 16 16 14 12 12 10 14 17 13 5 8 10 11 11 11 10 8 8 6 5 9 10 7 6 11 6 5 7 9 10 14 17 17 18 18 18 18 18 19 18 18 17 18 19 20 22 27 29 30 31 30 29 28 29 29 29 31 33 35 35 34 35 38 39 39 40 38 35 31 26 26 25 20 21 24 24 26 28 29 29 28 28 27 26
8 13 16 16 12 11 10 9 14 18 13 4 8 8 7 8 7 7 7 6 4 6 11 10 8 7 11 7 6 6 8 11 12 14 16 18 18 18 18 19 19 17 16 17 18 19 20 25 29 29 29 29 30 29 28 28 27 26 28 29 31 34 33 34 38 40 40 41 39 35 33 31 28 25 21 19 20 23 25 26 28 29 29 29 29 29
3 4 10 12 11 10 9 8 12 17 12 7 8 7 6 5 4 3 3 2 4 9 12 12 11 8 10 9 8 7 7 10 10 9 12 15 18 18 18 19 19 17 16 17 18 18 20 25 28 27 28 28 29 29 27 26 26 26 27 28 30 32 31 32 37 40 39 39 38 37 37 35 31 26 23 21 21 23 24 26 27 28 29 29 30 29
4 4 7 6 9 11 10 8 9 11 12 10 8 8 6 4 2 3 2 3 8 10 7 11 12 10 11 8 6 9 11 11 11 10 12 15 18 19 18 19 19 18 17 17 17 17 18 21 23 25 27 28 28 28 27 27 27 26 26 28 29 30 30 31 34 37 37 36 36 37 37 37 33 28 26 25 24 25 27 27 25 26 28 28 29 29
10 7 4 3 8 13 12 9 7 7 11 11 9 9 8 5 4 6 6 5 10 7 2 7 10 10 13 7 3 8 11 12 13 11 12 15 18 18 19 19 18 18 19 18 17 17 17 17 19 22 27 27 27 28 29 30 29 27 27 28 30 30 32 32 32 34 36 35 36 37 37 36 34 32 31 30 28 28 30 29 26 26 28 28 29 30
7 5 6 6 6 12 15 11 8 8 11 13 11 10 10 7 7 9 8 5 7 4 4 6 7 7 10 7 8 13 13 12 13 12 12 14 16 17 18 19 19 19 19 18 18 18 17 17 18 22 26 27 27 30 32 32 31 28 27 29 31 30 32 33 33 34 35 35 37 39 38 36 35 35 34 32 30 30 32 32 30 30 30 30 32 32
10 7 10 13 8 12 17 14 10 9 10 13 10 9 10 8 7 7 6 6 6 2 4 7 6 6 5 2 6 13 15 15 14 13 13 13 14 15 15 17 18 19 19 17 18 19 19 19 20 22 25 26 28 31 32 32 31 30 29 32 33 31 31 34 33 33 34 36 37 39 39 37 37 37 35 34 34 32 34 35 34 33 32 32 34 34
13 7 8 16 11 14 17 13 10 11 9 10 9 9 10 8 6 2 2 3 3 1 3 5 4 4 2 2 3 7 11 13 13 12 13 13 13 12 11 14 16 17 18 18 18 20 20 19 20 23 25 27 29 31 32 32 32 32 32 33 37 35 33 36 36 35 35 36 36 39 40 38 37 38 35 35 37 38 38 38 37 36 36 35 35 35
9 5 7 11 10 14 18 14 13 12 7 6 9 11 7 6 7 5 2 1 1 5 4 5 6 6 3 6 8 9 9 10 12 12 13 14 13 12 11 12 15 16 18 19 19 20 20 19 20 24 27 28 30 31 32 33 36 37 35 33 37 37 35 37 40 38 37 37 37 39 41 39 37 39 37 36 39 39 37 37 38 38 36 36 36 35
3 5 6 10 11 12 13 14 16 14 10 7 9 11 6 6 6 7 4 3 4 7 4 5 10 9 6 5 6 11 12 11 12 13 14 14 12 12 12 12 15 17 17 19 19 18 18 18 19 24 28 30 32 33 34 38 40 40 38 35 36 37 38 40 41 40 38 39 38 38 40 39 38 39 38 36 38 38 36 36 38 37 36 37 37 35
3 5 5 11 15 10 7 12 13 11 10 6 7 9 7 4 7 7 5 6 7 8 5 5 8 9 10 7 3 7 11 12 12 12 13 15 13 13 13 13 15 15 14 16 17 16 17 19 20 25 29 32 34 33 35 38 37 36 37 37 36 39 42 42 38 37 37 38 38 37 39 42 41 40 38 35 35 37 37 38 38 38 38 38 37 35
2 5 5 7 10 10 9 10 10 10 8 3 4 8 6 4 6 7 5 4 6 7 5 4 5 7 10 9 7 8 9 10 11 10 11 14 14 13 13 12 13 13 13 14 16 17 19 21 23 28 32 33 34 33 34 35 34 34 36 36 36 37 37 36 35 35 38 39 38 36 38 41 41 41 39 36 35 37 38 39 38 38 38 38 37 36
1 6 5 2 6 9 9 9 11 12 10 6 7 9 7 4 3 5 5 4 5 6 5 5 7 5 3 6 11 13 11 10 10 10 10 12 14 13 13 12 11 12 13 15 16 18 20 20 23 29 33 32 32 32 32 32 32 34 34 35 37 36 34 35 35 36 38 39 37 37 38 40 41 41 39 36 36 36 37 38 39 40 39 38 38 37
1 4 5 4 6 7 7 10 16 18 16 13 11 10 11 8 5 6 7 6 6 6 4 5 9 6 2 4 8 11 11 11 11 11 11 11 13 13 12 13 11 9 11 14 16 16 18 18 20 25 29 28 28 28 30 31 31 33 34 34 36 35 34 36 36 36 40 40 38 39 39 38 38 40 39 36 34 35 35 36 40 42 40 39 39 39
2 1 3 5 5 3 4 8 14 15 15 16 13 11 13 11 9 9 7 6 7 6 3 3 8 6 3 6 7 9 11 11 9 10 10 11 12 12 12 13 10 7 7 11 13 14 15 16 17 20 21 23 26 27 29 30 30 32 34 34 34 34 36 37 36 37 42 43 41 41 39 36 36 37 38 37 34 34 34 35 39 42 42 41 39 39
2 1 4 4 1 1 1 4 6 5 7 13 13 12 12 12 13 12 6 4 7 7 5 4 9 5 2 3 5 5 6 7 6 7 9 10 9 9 11 11 10 6 5 8 11 12 12 12 12 13 15 19 24 25 26 28 28 31 33 32 33 35 37 37 35 34 39 42 40 38 36 36 35 35 35 35 34 34 34 33 35 39 42 42 38 37
2 0 3 5 5 5 6 7 7 4 5 7 8 11 13 15 17 14 5 2 6 11 12 9 9 5 2 1 3 3 4 6 7 6 7 8 7 6 8 7 7 5 5 8 9 9 11 12 12 13 14 16 21 24 27 28 28 29 31 32 34 35 35 35 33 32 37 40 37 34 35 36 35 34 35 36 35 35 35 34 32 34 40 41 38 38
1 1 1 5 8 10 8 7 6 3 3 3 4 9 14 17 20 15 6 5 8 10 13 13 9 2 3 2 3 4 4 6 9 7 5 6 7 6 6 5 5 5 5 8 9 9 11 12 13 14 14 15 20 24 26 28 28 28 30 32 33 33 33 34 33 32 34 37 35 33 35 36 36 36 36 37 36 34 35 34 32 31 36 39 39 38
0 1 2 1 1 2 2 2 2 3 3 4 4 6 8 14 20 16 9 8 6 5 9 14 10 4 4 5 4 5 6 7 8 8 5 5 6 6 5 4 4 4 5 7 8 9 10 11 14 16 15 15 19 23 26 27 28 29 30 32 33 32 31 31 32 33 34 35 35 33 34 37 38 38 37 36 36 35 33 34 34 32 34 37 38 36
0 2 3 3 4 3 5 7 5 5 6 7 7 9 8 9 15 18 15 8 7 6 12 11 8 9 10 6 4 5 7 7 8 8 6 4 5 5 3 3 5 6 5 6 8 10 10 12 15 15 13 15 19 22 25 25 28 31 33 32 32 31 31 32 35 37 36 35 33 33 35 38 39 37 36 36 36 36 34 34 35 34 33 35 36 35
1 1 3 3 5 5 7 9 7 5 6 8 9 11 11 11 12 15 15 9 10 10 12 5 7 12 13 10 9 7 6 8 8 6 5 3 4 4 3 4 6 6 6 7 9 11 11 12 13 13 12 13 16 20 23 24 27 31 32 31 31 32 32 34 38 39 36 34 35 37 39 40 38 35 36 36 36 38 37 34 34 34 33 35 36 35
2 1 4 6 8 6 7 9 7 5 6 9 10 12 14 14 13 12 12 13 13 15 15 8 9 12 13 13 15 11 6 5 4 3 4 4 3 2 2 4 6 6 6 8 9 10 11 12 12 12 11 11 14 18 22 23 27 30 31 30 32 34 34 35 38 39 36 35 39 42 44 43 38 35 36 37 38 40 39 36 34 33 35 37 38 36
3 2 5 7 7 6 6 7 8 8 9 11 12 12 13 14 14 12 11 14 14 14 17 15 11 10 8 8 11 9 3 2 3 5 6 5 3 2 3 5 6 6 6 7 7 8 9 10 11 10 11 13 16 19 23 25 28 30 30 30 33 36 36 36 38 40 39 39 42 43 43 42 39 36 36 38 38 38 38 37 35 34 35 37 37 37
3 3 4 5 5 5 5 6 10 13 14 14 14 14 14 13 14 12 10 11 12 11 14 16 12 7 4 4 8 6 3 4 7 7 6 5 4 4 5 6 6 6 6 5 6 7 9 10 12 12 14 15 17 20 24 26 27 28 29 31 35 36 34 34 36 39 41 41 42 43 41 39 38 37 37 38 38 38 39 38 36 34 35 35 36 36
2 3 3 4 5 5 6 8 10 12 11 11 10 8 10 13 14 14 12 13 13 12 11 12 9 4 4 7 9 9 8 9 9 8 7 6 5 6 7 7 6 5 5 6 7 8 10 11 12 13 14 15 17 22 27 26 25 28 31 34 35 34 33 34 37 40 41 39 39 41 40 37 36 37 37 38 38 37 38 38 37 35 35 34 34 34
3 4 3 3 3 5 8 9 10 8 7 5 1 0 5 10 12 14 16 15 15 13 11 9 8 5 7 9 10 10 12 11 8 7 6 5 5 6 6 6 4 4 5 6 7 8 9 9 10 12 13 15 20 24 25 25 27 30 30 29 30 31 34 35 36 38 40 38 38 39 38 36 36 36 37 37 36 35 35 36 36 36 34 33 32 33
4 4 4 3 3 5 6 6 8 8 5 6 6 2 3 7 7 10 15 16 17 17 14 13 12 10 8 9 11 13 14 9 3 2 4 4 4 4 4 4 4 3 4 4 5 7 7 8 9 11 12 16 19 20 21 23 27 28 27 26 27 29 33 34 34 35 35 34 35 36 35 36 37 35 33 33 32 32 33 34 34 34 33 31 32 33
7 5 4 4 4 4 3 5 8 4 9 16 11 5 3 3 3 6 10 10 10 12 13 14 14 12 10 10 10 9 6 2 1 1 3 4 4 4 5 4 3 4 5 5 5 7 7 8 10 11 11 14 18 19 21 23 23 23 25 27 27 26 28 30 29 28 27 27 30 33 36 38 37 34 32 31 30 31 32 33 34 34 32 31 31 32
10 7 5 5 6 5 5 8 9 7 13 14 6 5 3 3 4 5 4 4 5 5 7 10 12 14 12 9 8 5 1 1 3 4 5 5 5 5 5 3 3 4 5 5 6 8 8 9 10 11 10 13 17 20 20 20 21 22 22 22 23 24 26 26 24 25 27 28 29 32 36 37 34 31 30 29 30 32 33 34 34 32 31 31 31 32
13 10 8 7 6 6 7 8 9 9 9 5 3 2 3 4 3 2 3 4 3 6 8 8 9 13 12 7 7 6 5 4 7 6 6 8 6 5 4 3 2 3 4 5 7 7 9 9 9 10 10 11 15 17 18 19 23 24 21 20 22 24 24 24 24 27 29 29 30 33 35 35 31 29 28 29 31 33 33 33 33 32 32 33 32 33
14 11 8 8 7 8 9 9 9 8 5 2 4 1 4 3 2 3 3 3 1 7 10 9 9 11 11 6 6 7 7 7 8 6 6 9 7 5 4 3 1 1 3 4 5 6 7 8 6 6 8 9 10 13 17 21 24 24 20 20 22 22 23 25 26 28 30 31 33 36 37 36 35 32 31 32 34 33 32 33 33 32 33 34 34 33
13 9 8 9 10 9 10 9 8 7 4 0 2 1 3 1 4 5 6 2 3 8 10 10 11 12 11 8 4 9 8 7 6 3 7 10 7 5 4 3 1 1 3 4 5 5 6 6 4 2 3 3 5 9 14 19 21 21 18 18 20 20 21 22 23 25 29 33 34 34 34 35 36 36 35 35 35 34 33 32 32 31 31 33 33 31
9 8 8 10 11 11 11 10 8 7 5 4 3 1 1 1 4 5 5 1 3 9 9 10 13 12 10 10 7 8 4 1 2 5 10 10 7 6 5 3 2 2 3 5 6 7 7 8 8 8 7 5 3 6 12 15 16 15 13 14 15 16 16 18 22 26 29 30 29 28 28 30 34 37 36 33 32 30 29 29 30 30 31 30 30 30
7 7 8 10 10 9 9 9 8 7 4 6 4 1 2 4 5 3 3 4 6 9 9 10 12 12 11 11 9 5 2 3 5 8 10 9 8 7 5 4 4 3 4 6 9 9 9 9 11 11 10 8 6 5 10 13 12 10 11 11 11 11 11 15 21 25 27 28 26 25 25 26 30 34 31 27 26 26 26 27 27 28 28 27 28 29
4 5 7 9 9 8 8 9 9 6 3 7 6 3 4 5 2 2 4 6 5 6 9 9 9 10 11 11 7 3 2 3 5 7 9 8 8 7 5 5 5 4 6 8 9 10 10 10 11 12 11 10 9 8 9 11 9 8 9 7 6 6 7 9 13 16 20 24 24 23 23 24 27 29 27 25 27 27 26 25 25 25 26 27 28 28
5 5 5 6 7 7 8 8 4 3 1 7 6 4 4 3 1 1 3 6 4 4 6 7 7 9 10 8 4 5 6 5 5 6 7 8 8 7 6 6 6 6 7 8 9 11 11 11 11 13 13 13 13 12 11 10 10 10 8 7 5 4 5 6 9 12 16 19 21 21 21 21 23 25 23 23 25 25 24 23 23 25 26 28 29 28
3 2 3 4 5 7 8 7 6 9 7 5 5 3 4 4 2 2 4 4 4 3 4 5 7 9 9 5 4 5 6 6 7 6 6 7 8 7 6 6 6 7 8 8 10 12 12 12 13 14 15 15 15 15 14 12 12 12 10 6 5 4 3 4 8 11 13 15 17 19 19 18 19 20 20 20 21 22 22 22 23 25 26 28 29 29
5 6 4 3 6 9 10 10 10 10 12 10 4 3 4 4 4 3 2 1 2 3 4 4 6 8 7 4 4 5 6 7 8 7 6 7 7 7 7 7 7 8 9 9 10 12 13 14 14 15 16 16 16 16 15 14 14 13 8 5 4 4 4 3 5 7 9 10 11 13 14 14 15 16 17 19 20 21 21 22 24 25 26 27 29 29
6 5 3 5 8 8 6 7 7 7 10 11 6 4 4 4 4 3 2 2 4 4 4 4 4 6 5 2 3 5 6 8 9 7 6 6 6 7 8 8 8 9 9 10 11 12 14 14 13 13 14 15 15 16 15 15 14 12 9 6 5 5 5 5 5 4 4 5 6 7 8 9 11 12 13 15 17 18 19 21 24 25 25 27 27 26
4 4 5 7 7 6 7 10 11 9 11 13 8 4 5 6 6 6 6 7 7 5 3 3 5 6 6 5 3 4 6 7 9 8 7 5 6 7 7 8 9 9 10 11 12 13 14 14 13 13 14 14 15 15 16 16 15 14 12 9 7 6 8 8 8 7 6 4 4 3 4 5 7 8 9 10 12 14 16 18 21 24 26 28 28 25
7 8 8 8 7 8 11 12 11 10 12 13 11 6 5 8 9 10 11 11 10 6 4 6 7 6 6 6 4 4 5 6 8 10 8 7 6 7 7 8 9 10 11 12 13 14 15 15 15 15 16 16 15 15 17 17 16 14 13 11 9 9 10 11 11 11 10 9 8 7 6 5 3 2 1 4 5 7 9 10 14 17 19 22 24 24
9 10 9 7 7 9 10 8 6 6 7 9 9 8 7 8 10 14 14 12 9 7 5 7 7 7 6 7 6 5 5 6 8 10 10 8 7 8 8 8 9 10 11 13 15 16 17 17 17 18 18 17 17 17 18 18 18 16 15 13 12 13 13 12 13 12 11 11 11 10 9 9 9 8 7 5 3 3 3 4 7 10 14 18 20 22
8 9 8 6 8 11 11 9 6 4 7 9 7 9 9 5 12 16 13 10 8 7 6 8 8 8 7 7 7 7 6 6 9 11 11 10 8 8 9 9 9 10 12 14 15 16 18 19 19 20 19 19 19 20 20 20 19 19 18 17 16 15 14 13 13 12 11 10 10 10 12 13 12 13 14 13 12 11 9 7 6 6 7 12 17 20
Wind_Direction
178 197 207 213 208 192 193 202 208 208 146 189 194 218 235 242 244 251 273 300 335 292 263 258 259 261 259 215 187 192 191 198 197 183 184 186 185 188 190 193 195 198 198 188 190 194 196 199 199 197 195 193 193 193 191 191 193 195 194 195 197 197 196 196 197 200 202 204 206 209 210 214 216 217 225 234 236 238 240 242 243 243 241 239 238 240
182 215 219 205 190 179 188 198 202 211 213 197 196 212 229 238 246 259 280 283 292 286 272 275 279 273 268 238 191 184 191 199 197 190 191 192 190 191 193 196 197 195 190 186 190 192 195 199 198 197 199 198 195 193 192 193 195 196 195 197 198 197 198 198 199 199 199 201 202 203 205 208 211 215 221 228 233 235 238 241 241 241 240 237 238 241
200 228 215 178 163 173 186 193 197 208 217 221 219 226 238 234 251 271 267 264 257 264 276 285 285 280 278 248 199 189 195 200 201 198 196 193 191 192 195 196 194 189 187 189 191 191 195 198 198 200 204 204 201 196 195 195 196 196 197 198 198 199 200 201 203 203 201 201 201 201 202 205 208 215 222 225 232 236 239 241 241 239 237 235 237 240
204 231 193 160 165 183 186 190 196 206 214 222 219 221 236 218 219 249 222 133 221 242 278 295 289 279 274 244 209 201 202 201 203 204 203 198 196 197 196 194 191 189 189 190 192 193 195 197 198 201 204 205 205 202 198 196 196 196 198 198 198 201 203 204 207 207 205 203 204 207 209 213 216 221 228 230 235 239 239 241 240 237 234 234 236 239
211 202 159 164 176 191 192 187 192 204 213 219 219 222 232 210 201 240 288 334 289 246 256 283 289 276 236 228 223 202 202 206 204 203 206 204 204 203 198 197 196 195 194 191 193 194 195 197 197 199 202 203 205 205 200 197 196 196 198 199 200 203 206 208 210 209 207 207 207 207 210 216 219 222 226 227 229 232 235 237 237 236 233 233 236 238
221 137 151 172 179 191 199 197 194 201 213 220 221 222 224 201 190 209 268 300 287 261 239 259 277 272 208 232 232 183 195 208 204 203 208 206 203 203 200 200 199 200 199 196 197 196 196 197 197 198 200 200 203 205 202 199 198 198 198 199 202 204 206 208 210 209 207 208 206 202 201 203 208 214 217 216 215 220 227 230 233 235 234 233 237 239
208 148 158 179 183 189 201 211 198 193 213 230 209 199 198 188 193 203 220 248 267 272 283 178 263 275 267 250 231 189 202 210 206 208 211 208 204 204 204 202 199 199 200 198 200 198 197 197 197 200 201 202 204 205 203 201 200 200 199 201 203 204 204 205 207 207 207 205 204 202 202 201 204 209 212 213 213 217 225 228 230 234 235 234 237 240
167 158 167 183 187 191 204 213 188 183 215 233 150 158 177 193 207 212 222 241 256 278 277 244 250 277 276 251 200 190 208 213 212 213 213 211 209 207 208 206 201 199 199 197 198 199 200 199 198 201 202 204 206 204 203 203 202 202 202 203 204 204 204 204 204 206 206 205 204 205 205 204 208 211 211 215 218 221 227 230 230 233 236 236 236 239
160 176 179 178 188 200 207 193 164 181 214 215 135 156 177 195 210 209 219 242 247 263 263 241 212 251 268 244 152 176 208 220 218 214 213 212 210 210 210 208 205 202 200 198 198 199 200 201 202 203 203 204 205 204 204 203 203 204 204 204 204 204 203 203 205 206 207 207 207 206 205 206 211 214 213 217 221 223 227 229 229 231 235 237 238 239
154 190 183 174 189 204 199 170 160 186 209 167 137 148 156 177 188 191 215 236 225 238 251 234 189 225 267 249 174 171 210 226 224 213 211 212 209 209 210 209 207 204 202 202 201 201 202 203 204 204 203 203 203 206 207 204 203 204 204 204 204 205 204 203 206 206 207 208 208 207 206 208 211 211 210 211 215 219 222 225 228 230 232 235 237 238
95 180 179 180 200 199 181 166 175 191 187 142 150 158 151 159 142 160 205 212 233 245 244 229 201 212 267 257 198 184 208 218 221 215 206 207 208 208 209 209 207 204 201 202 203 204 204 205 206 205 205 204 202 205 206 204 204 204 204 203 205 206 204 203 205 207 207 207 207 209 210 211 211 208 206 205 209 213 217 220 224 228 230 232 234 236
218 178 169 190 208 190 170 175 191 188 173 164 186 194 187 181 168 206 185 177 239 249 228 214 202 206 245 253 186 190 204 205 217 219 201 200 206 206 207 208 207 204 201 200 203 204 203 203 204 204 205 205 200 200 203 205 206 204 203 202 203 205 204 203 204 205 206 206 207 210 212 213 211 207 206 207 209 210 214 217 219 223 227 228 232 233
219 201 172 192 204 190 180 186 191 177 178 191 200 195 200 199 192 217 207 203 238 244 153 181 188 208 240 257 213 205 207 206 218 222 205 201 204 204 205 205 205 204 200 198 199 201 201 199 199 201 204 201 197 197 201 204 205 204 202 201 202 204 204 204 203 204 205 206 207 209 211 213 211 210 211 211 211 213 216 217 215 219 223 224 227 229
205 211 206 201 196 190 188 189 188 179 185 196 197 189 197 195 194 213 207 214 244 230 119 141 172 229 253 255 224 216 216 214 216 221 214 206 202 201 203 203 202 201 201 200 198 198 200 199 196 199 201 199 197 199 200 200 202 201 199 200 202 204 203 203 203 204 205 207 210 212 212 212 212 213 214 213 214 215 218 219 218 220 222 223 226 229
200 218 203 196 184 174 190 203 190 165 178 197 195 192 205 203 202 212 198 212 245 221 127 139 173 226 232 215 208 212 217 214 212 215 213 211 208 203 202 201 200 202 203 202 199 198 200 198 195 197 199 198 199 200 200 199 197 196 197 199 202 203 202 203 203 203 205 208 211 213 213 213 214 215 215 216 217 217 220 222 222 223 224 225 229 231
211 230 178 188 184 165 187 205 171 148 175 196 181 195 220 208 188 209 220 215 257 290 169 173 220 243 224 299 275 236 231 222 217 216 211 217 217 207 203 200 198 202 203 202 200 201 201 197 194 196 198 199 199 199 199 198 195 196 198 199 202 204 203 204 204 204 206 208 210 213 214 213 214 216 215 217 220 221 223 225 225 226 227 229 231 232
211 221 143 169 182 178 189 187 168 170 180 171 182 203 208 171 179 216 245 132 245 258 213 186 244 265 271 266 239 222 233 227 222 221 216 221 218 206 205 201 199 203 202 202 202 201 198 194 195 199 200 200 199 199 199 198 197 198 198 196 200 203 203 204 206 206 206 207 210 213 214 213 213 215 216 217 221 222 223 225 227 228 230 231 232 233
208 213 143 154 183 196 191 177 179 185 161 146 195 194 135 120 192 221 234 201 217 244 232 197 236 247 247 253 207 195 212 219 219 217 217 221 217 213 213 204 203 204 202 201 201 198 195 194 197 200 202 202 201 199 198 199 200 200 199 197 198 199 202 205 206 205 206 207 209 211 213 213 213 215 216 217 220 221 220 223 226 227 229 232 233 233
221 226 170 176 190 183 162 176 187 184 169 170 189 167 141 172 194 186 216 225 216 233 245 219 236 243 232 229 194 190 204 212 217 215 215 217 214 217 219 211 206 204 201 200 200 199 196 197 199 199 202 204 203 200 199 199 199 199 200 200 199 202 204 205 203 202 205 206 207 210 212 214 215 215 215 215 217 219 219 222 224 226 228 231 232 232
208 217 205 193 184 159 157 190 194 183 188 198 158 165 177 211 192 177 195 214 207 224 242 236 245 246 227 210 210 225 223 221 223 218 218 219 214 214 217 215 206 198 197 199 199 201 198 200 201 200 202 204 202 201 200 199 198 198 199 199 200 202 203 201 200 200 203 206 206 208 211 213 215 216 216 215 216 217 220 222 223 225 228 230 231 232
213 210 216 160 150 163 178 196 195 188 189 191 188 191 187 177 185 190 195 202 212 222 227 240 253 249 191 174 200 217 226 230 229 225 226 226 222 220 218 218 208 193 195 198 198 200 199 200 202 202 203 204 203 201 200 199 198 198 198 198 199 199 197 198 200 200 203 205 205 207 209 212 214 215 215 216 216 218 220 222 223 226 228 229 230 231
326 206 210 180 176 193 186 186 198 199 194 194 200 199 191 185 178 189 203 203 210 225 210 229 262 263 150 157 195 204 214 222 221 221 227 229 230 228 225 226 219 200 197 199 199 200 198 198 201 202 201 198 199 199 198 199 198 196 198 199 199 198 198 200 200 201 203 204 204 207 209 210 212 214 215 215 216 217 218 221 224 226 227 228 231 231
355 201 208 206 205 207 172 187 210 215 207 204 206 200 196 194 186 198 214 189 187 217 195 216 271 275 148 167 192 196 208 219 218 216 223 230 232 232 233 235 234 221 206 201 199 199 199 199 198 199 194 191 196 198 196 198 197 196 197 197 197 197 199 201 199 200 203 204 205 207 207 207 209 211 213 213 213 214 216 219 223 226 227 227 230 231
347 194 204 212 235 322 232 218 234 246 227 218 214 205 201 199 198 209 218 168 182 201 177 205 250 249 130 175 206 206 221 232 230 219 223 234 236 234 237 241 240 231 205 198 198 197 200 195 190 195 195 195 200 199 194 194 194 195 196 195 196 197 199 199 197 197 200 203 205 205 204 205 206 208 210 211 212 214 215 216 219 224 227 227 227 229
318 335 195 196 200 215 223 223 220 207 211 227 224 214 210 203 204 210 199 138 208 205 191 211 236 217 111 140 232 249 260 259 256 236 224 237 245 237 237 242 243 232 198 197 199 191 191 187 187 197 199 198 200 198 196 196 194 194 195 195 198 200 198 197 196 195 197 200 203 202 203 205 206 207 209 210 212 213 214 215 215 220 224 225 224 226
293 9 266 209 207 207 208 215 219 206 208 245 247 226 217 208 207 209 193 193 214 196 192 216 233 188 106 145 217 243 254 263 263 252 232 243 257 251 239 236 237 227 201 198 195 187 188 190 195 201 200 198 198 196 197 199 196 196 196 195 199 200 197 195 194 192 193 197 199 201 202 204 205 207 208 209 211 212 212 213 213 215 220 223 223 224
216 42 26 29 224 221 242 260 288 327 290 261 280 270 243 221 213 209 210 214 194 164 205 225 233 238 206 179 185 221 230 245 257 259 254 247 254 255 249 242 242 238 215 200 194 192 191 195 202 204 200 198 196 194 195 195 194 195 195 195 199 199 193 191 190 189 191 194 198 200 201 202 204 206 207 207 208 209 210 211 212 214 217 220 220 221
30 48 60 59 35 4 319 302 299 299 276 265 279 285 278 253 227 218 220 203 137 174 229 224 213 237 237 213 204 213 219 232 246 256 263 260 252 247 242 245 246 244 225 199 198 201 198 201 207 206 201 197 195 193 194 194 193 194 195 195 196 195 192 190 192 194 195 195 197 200 201 203 204 205 205 205 206 208 208 210 212 213 215 217 217 218
335 23 53 13 343 332 306 298 296 280 266 266 270 271 274 275 256 238 233 209 168 206 241 202 169 223 236 231 235 230 216 227 237 251 265 276 270 246 220 232 240 240 229 208 204 203 202 207 209 207 203 196 194 193 193 195 196 197 198 196 194 195 196 196 197 198 197 195 198 201 203 204 204 204 204 204 206 208 209 209 211 212 214 217 218 218
318 354 28 346 323 316 305 300 299 295 280 275 272 268 268 269 268 264 257 243 224 230 244 223 185 213 225 225 232 232 221 229 256 299 281 261 262 249 227 242 243 239 233 223 216 210 208 211 211 209 202 194 195 196 194 196 197 197 199 196 194 198 199 197 197 197 196 198 202 205 207 207 206 204 204 206 208 210 211 210 211 212 214 218 219 218
343 356 3 344 318 303 307 307 303 307 304 290 277 266 262 263 264 259 253 251 245 239 242 239 221 216 216 224 238 234 192 185 246 262 258 249 249 242 242 251 250 246 245 239 235 228 220 218 214 207 202 199 198 197 196 198 198 198 199 195 194 199 198 194 195 196 199 203 205 206 207 208 207 206 206 208 209 210 210 210 211 213 215 218 219 218
341 327 343 337 308 291 309 319 316 318 311 289 273 263 255 253 254 251 241 241 240 236 240 242 239 231 205 223 255 251 204 210 228 237 245 243 237 234 240 248 250 255 268 269 261 248 236 229 220 209 207 206 200 197 199 200 198 197 198 196 195 195 192 190 194 197 201 204 204 205 206 205 205 206 206 207 208 208 210 210 211 213 214 215 216 216
291 297 322 313 291 293 307 315 322 321 304 276 264 263 259 252 250 251 246 241 238 234 235 239 241 239 195 210 239 248 237 230 228 230 235 233 225 225 234 245 249 257 270 271 266 255 242 235 227 217 213 205 197 198 201 198 197 199 201 199 197 192 188 190 195 198 202 204 202 203 204 202 202 204 206 207 207 207 209 210 211 213 213 214 215 215
246 253 279 287 279 289 301 315 314 289 261 259 275 341 280 271 264 257 249 244 239 234 241 255 254 232 209 210 220 233 239 239 233 227 224 222 224 222 226 242 252 259 263 261 266 265 254 246 237 226 218 208 201 202 200 197 199 203 204 202 198 193 192 195 197 199 202 202 201 203 203 201 202 204 206 206 205 204 207 209 211 214 214 214 214 214
239 236 253 259 258 278 297 305 276 243 248 311 334 26 282 268 272 272 259 249 241 235 237 250 249 239 227 215 215 229 239 241 236 207 203 208 225 228 229 241 244 253 259 257 266 271 266 259 247 232 219 211 205 201 197 196 199 199 198 198 196 195 198 200 200 202 202 200 200 201 201 201 203 204 204 203 202 203 206 209 212 213 213 213 214 215
225 228 240 235 237 257 264 244 237 251 331 318 318 18 13 277 324 307 266 247 248 243 235 235 236 239 239 222 219 236 249 248 73 144 193 201 209 220 235 243 245 261 270 271 273 271 271 269 258 243 222 205 200 198 197 196 194 190 190 192 192 194 198 200 202 203 201 198 198 200 201 202 203 203 201 200 200 203 207 209 212 212 210 212 215 216
215 221 228 226 225 226 235 246 255 302 317 300 299 38 7 297 345 334 275 264 303 299 272 252 237 235 234 221 215 223 183 174 249 230 199 197 201 210 226 242 255 270 279 286 286 282 281 279 267 256 235 205 196 197 195 190 185 183 183 185 188 190 193 197 200 201 200 200 200 201 202 203 202 201 201 199 200 205 207 209 211 211 209 212 215 217
206 209 213 217 215 211 232 256 262 270 274 247 155 78 307 281 286 284 261 270 324 3 344 308 267 251 243 216 193 182 161 207 249 236 187 183 189 189 193 215 250 279 297 301 301 299 299 291 272 253 232 209 200 195 188 183 182 182 180 182 187 189 191 196 200 201 201 201 201 202 203 204 203 201 201 202 205 208 208 209 211 210 209 212 216 218
205 209 216 228 228 213 218 235 242 243 244 154 132 189 309 313 200 202 248 252 12 10 352 331 305 286 278 254 188 168 169 210 241 234 170 163 169 171 172 171 153 338 329 329 329 327 324 313 285 237 206 197 195 190 185 182 181 181 181 185 188 190 193 199 201 200 201 203 204 206 206 205 205 203 203 206 209 209 208 209 210 209 210 213 216 218
201 207 215 226 234 226 223 233 240 239 242 184 134 237 330 15 160 209 254 239 33 350 333 326 316 303 300 301 231 188 196 218 235 200 136 140 150 153 151 146 112 19 356 9 12 7 9 8 15 80 123 145 167 179 182 180 179 181 183 182 185 191 197 200 200 200 204 207 208 207 206 204 204 204 205 208 209 209 209 210 209 209 209 212 215 217
201 207 212 220 229 227 227 237 248 244 226 214 221 243 24 176 192 230 250 239 338 325 328 330 317 304 301 295 254 216 227 282 78 108 121 134 145 141 137 143 120 54 20 31 36 43 53 55 58 63 57 48 92 162 175 175 175 180 179 176 185 196 199 200 203 206 209 210 209 208 208 206 206 207 209 210 210 209 210 211 210 211 212 215 216 218
200 205 214 222 226 227 229 235 250 255 209 172 182 155 159 219 233 250 281 296 304 314 333 333 316 310 303 283 259 247 319 47 94 116 126 135 139 135 139 142 122 93 60 54 50 55 67 68 66 65 55 45 62 125 162 169 168 167 169 173 186 196 197 200 206 209 210 210 209 209 209 208 209 211 212 211 209 210 213 214 214 215 216 218 220 222
214 220 226 221 216 225 236 231 239 255 185 150 163 174 187 220 270 4 319 302 303 322 334 326 311 310 303 283 259 219 128 115 124 126 127 129 129 129 136 134 118 92 73 69 61 60 67 69 66 63 56 52 57 83 131 152 150 143 147 148 156 180 193 199 205 208 210 211 212 211 210 211 212 213 214 213 213 216 218 217 217 218 219 218 219 222
211 213 241 234 213 216 225 219 232 302 167 163 180 201 198 207 16 41 276 294 314 331 331 322 311 314 308 287 240 169 148 143 139 134 131 129 127 127 131 124 109 90 79 77 74 70 69 70 69 65 60 57 56 66 90 113 117 113 111 102 105 148 178 195 205 208 210 212 214 214 215 215 215 215 216 217 216 218 221 219 218 221 222 222 222 223
205 217 283 266 247 249 253 259 297 321 307 233 198 193 189 180 157 192 233 276 306 338 343 320 311 321 316 280 208 163 152 149 144 141 138 133 126 124 125 116 104 98 93 88 87 84 78 75 73 71 67 62 60 63 70 80 91 93 88 83 90 105 121 170 198 205 209 211 213 214 216 217 217 217 218 218 217 219 221 221 221 224 226 226 226 226
287 309 309 280 283 288 281 269 264 274 281 270 229 169 175 172 155 175 213 270 332 350 343 312 314 334 325 268 193 160 152 145 138 135 135 131 125 121 120 113 104 103 102 100 99 96 90 83 77 74 71 66 64 66 66 68 76 81 79 79 83 84 92 129 170 190 205 212 214 215 216 217 220 220 220 220 220 222 223 222 224 228 228 227 227 227
287 316 319 280 284 291 282 269 255 243 255 257 230 168 165 161 140 141 137 62 25 357 333 319 345 3 354 324 154 146 145 134 125 125 126 126 126 121 116 110 104 101 101 103 105 103 98 91 83 79 77 71 67 66 64 61 61 63 67 71 72 78 86 91 106 136 165 186 199 208 211 215 220 222 222 222 224 228 230 230 231 233 233 232 231 230
284 337 321 281 269 264 267 284 296 289 268 257 241 198 165 151 127 104 85 57 31 7 356 18 33 28 18 22 69 113 126 118 112 113 115 118 120 116 111 108 104 100 99 101 102 102 100 95 90 87 83 78 73 70 67 62 56 52 55 58 60 76 85 82 84 91 94 104 131 152 173 198 212 219 224 226 227 231 235 236 236 238 239 238 236 234
274 285 281 269 269 275 274 278 286 281 265 250 239 223 180 152 124 93 73 54 30 9 21 48 54 46 22 12 36 85 102 100 102 108 109 103 98 97 99 101 99 95 94 93 91 92 92 91 89 85 80 77 76 74 71 69 62 55 54 54 60 78 88 90 90 88 84 84 86 83 84 94 100 107 222 242 245 248 251 252 253 256 257 252 246 242
256 256 256 256 265 267 260 254 252 258 261 246 222 202 185 151 107 82 68 54 32 9 15 38 46 46 31 18 26 54 78 86 89 95 94 84 77 80 85 89 90 88 87 86 85 85 85 84 83 81 78 76 75 73 72 70 66 62 60 59 66 77 85 90 91 88 86 86 85 84 84 82 77 74 72 64 47 6 327 302 285 281 280 274 268 264
231 239 239 238 249 252 251 255 265 288 293 278 242 209 204 151 90 78 71 63 44 23 32 49 48 39 25 15 24 37 50 67 79 86 87 80 70 68 71 74 78 82 81 81 82 81 79 78 77 76 75 74 73 72 71 68 66 65 65 67 74 81 85 88 90 87 82 77 77 84 90 90 88 87 82 75 69 61 47 32 13 345 309 287 279 273